カタログに戻る

FENGYUN 1C DEB

運用中PO
NORAD 32361·DEBRIS·🇨🇳 China

打ち上げ May 10, 1999 から Taiyuan Satellite Launch Center

Loading…

次のパス (今後24時間)

TLE

経年Source: Space-Track

元期: Sep 11, 2026, 03:59 UTC

1 32361U 99025CZE 26254.16599691  .00003767  00000-0  88122-3 0  9992
2 32361  98.8432 333.1502 0041795 297.8633  61.8331 14.54750361  2990

AllMySatでFENGYUN 1C DEBをリアルタイム追跡

Download on the App Store